This is the latest recevied weather packets stored in our database for station/object KA1JKB. If no packets are shown the sender has not sent any weather packets the latest 10 day(s).
| Time | Temp. | Humidity | Pressure | Rain* | Wind** | Luminosity | Snow |
|---|---|---|---|---|---|---|---|
| 1787926726 | 20.56° C | 75% | 1019.6 hPa | 0 mm | - | 560 W/m² | - |
| 1787926424 | 20° C | 74% | 1019.6 hPa | 0 mm | - | 538 W/m² | - |
| 1787926119 | 20° C | 74% | 1019.4 hPa | 0 mm | - | 516 W/m² | - |
| 1787925818 | 19.44° C | 77% | 1019.4 hPa | 0 mm | - | 497 W/m² | - |
| 1787925518 | 19.44° C | 76% | 1019.5 hPa | 0 mm | - | 504 W/m² | - |
| 1787925213 | 19.44° C | 75% | 1019.4 hPa | 0 mm | - | 506 W/m² | - |
| 1787924912 | 20° C | 75% | 1019.5 hPa | 0 mm | - | 511 W/m² | - |
| 1787924607 | 19.44° C | 75% | 1019.5 hPa | 0 mm | - | 508 W/m² | - |
| 1787924302 | 19.44° C | 76% | 1019.6 hPa | 0 mm | - | 478 W/m² | - |
| 1787923997 | 19.44° C | 77% | 1019.5 hPa | 0 mm | - | 409 W/m² | - |
| 1787923697 | 18.89° C | 77% | 1019.3 hPa | 0 mm | - | 397 W/m² | - |
| 1787923392 | 18.89° C | 81% | 1019.6 hPa | 0 mm | - | 379 W/m² | - |
| 1787923087 | 18.89° C | 82% | 1019.7 hPa | 0 mm | - | 379 W/m² | - |
| 1787922782 | 18.89° C | 83% | 1019.3 hPa | 0 mm | - | 357 W/m² | - |
| 1787922481 | 18.89° C | 83% | 1019.4 hPa | 0 mm | - | 331 W/m² | - |
| 1787922180 | 18.33° C | 87% | 1019.1 hPa | 0 mm | - | 299 W/m² | - |
| 1787921878 | 18.33° C | 89% | 1019.3 hPa | 0 mm | - | 384 W/m² | - |
| 1787921573 | 18.33° C | 93% | 1019.1 hPa | 0 mm | - | 553 W/m² | - |
| 1787921268 | 17.22° C | 97% | 1019.3 hPa | 0 mm | - | 1162 W/m² | - |
| 1787920964 | 16.67° C | 99% | 1019.1 hPa | 0 mm | - | 107 W/m² | - |
| 1787920659 | 16.67° C | 99% | 1019.3 hPa | 0 mm | - | 167 W/m² | - |
| 1787920358 | 16.67° C | 99% | 1019.2 hPa | 0 mm | - | 151 W/m² | - |
| 1787920056 | 16.67° C | 99% | 1019.2 hPa | 0 mm | - | 132 W/m² | - |
| 1787919755 | 15.56° C | 99% | 1019.3 hPa | 0 mm | - | 112 W/m² | - |
| 1787919454 | 15.56° C | 99% | 1019.2 hPa | 0 mm | - | 72 W/m² | - |
* Rain latest hour (hover to see other rain measurements)
** Current wind speed in m/s (hover to see current wind gust speed)